Weather in Alekino

Russia / Kaluga Oblast     54°39′44″N   37°10′20″E
temp.,
°C
wind,
m/s
gust,
m/s
humid.,
%
clouds,
%
prec.,
mm/h
press.,
hPa
HPBL,
m
12 may, wed
wed1200:00+11se36935 0.0 1026137
03:00+8se33930 0.0 102655
06:00+8e11872 0.0 102735
09:00+11se1283100 0.1 1026106
12:00+11nw3584100 0.1 1023185
15:00+14e41184100 0.5 1019784
18:00+12ese41197100 3.9 1017611
21:00+8sse389617 7.2 1019321
13 may, thu
thu1300:00+6ese379711 0.0 1020162
03:00+5e389672 0.0 1020165
06:00+7ese5139398 0.0 1019353
09:00+12ese61180100 0.0 1019612
12:00+14ese5874100 0.0 1017693
15:00+17e796585 0.1 10141410
18:00+10sse2796100 8.1 1015316
21:00+9s369635 9.7 1016213
14 may, fri
fri1400:00+8sse339655 0.0 101661
03:00+7s33950 0.0 101746
06:00+8sse2493100 0.0 101893
09:00+13se3579100 0.0 1017414
12:00+18ese467199 0.0 1016812
15:00+20se587599 1.8 1014993
18:00+17se2385100 6.8 101234
21:00+15se2391100 12.4 101133
15 may, sat
sat1500:00+14sse2289100 2.4 101124
03:00+14sse4895100 3.6 1011135
06:00+13se51390100 1.3 1010368
09:00+19s4108145 1.3 1009669
12:00+19sse61086100 1.1 10101081
15:00+21ssw69741 2.0 10081250
18:00+19ssw6108099 0.9 1009816
21:00+14ssw512895 1.4 1010358
16 may, sun
sun1600:00+12ssw410961 0.0 1011301
03:00+11ssw499725 0.0 1012248
06:00+11sw38965 0.0 1014256
09:00+15wsw47760 0.0 1014667
12:00+18sw456213 0.0 10151496
15:00+20wsw235722 0.0 10151501
18:00+20wnw116371 0.0 10151190
21:00+14nne228099 0.0 101611